FW1466 Weather Reports


Display with metric or nautical units.
time (UTC)temp
F
wind
direction
speed
MPH
gust
MPH
rain 1hr
in
rain 24hr
in
rain mn
in
humidity
%
barometer
mb
20260901133003 78 169 0.0 2.0 0.00 0.03 0.00 92 1014.6
20260901131601 77 161 0.0 0.0 0.00 0.03 0.00 95 1014.7
20260901130058 76 160 0.0 0.0 0.00 0.05 0.00 97 1014.7
20260901124557 75 160 0.0 0.0 0.00 0.05 0.00 97 1014.8
20260901123111 74 161 0.0 0.0 0.00 0.05 0.00 97 1014.7
20260901121551 74 160 0.0 0.0 0.00 0.05 0.00 98 1014.6
20260901120056 74 161 0.0 0.0 0.00 0.05 0.00 98 1014.4
20260901114548 74 161 0.0 0.0 0.00 0.05 0.00 97 1014.0
20260901113045 74 161 0.0 0.0 0.00 0.05 0.00 97 1014.1
20260901111549 74 161 0.0 0.0 0.00 0.05 0.00 97 1014.1
20260901110037 74 161 0.0 0.0 0.00 0.06 0.00 97 1013.8
20260901104539 74 161 0.0 0.0 0.00 0.06 0.00 96 1013.6
20260901103034 74 161 0.0 0.0 0.00 0.06 0.00 96 1013.5
20260901101536 75 161 0.0 0.0 0.00 0.06 0.00 96 1013.5
20260901100032 75 161 0.0 0.0 0.00 0.06 0.00 96 1013.6
20260901094532 75 161 0.0 0.0 0.00 0.06 0.00 95 1013.6
20260901093030 75 161 0.0 0.0 0.00 0.06 0.00 95 1013.7
20260901091530 75 161 0.0 0.0 0.00 0.06 0.00 95 1013.3
20260901090028 75 161 0.0 0.0 0.00 0.06 0.00 95 1013.3
20260901084528 75 161 0.0 0.0 0.00 0.06 0.00 94 1013.5
20260901083030 75 161 0.0 0.0 0.00 0.06 0.00 94 1013.2
20260901081526 76 161 0.0 0.0 0.00 0.06 0.00 93 1013.4
20260901080025 76 161 0.0 0.0 0.00 0.06 0.00 94 1013.3
20260901074525 75 164 0.0 1.0 0.00 0.06 0.00 94 1013.4
20260901073029 75 164 0.0 0.0 0.00 0.06 0.00 95 1013.2
20260901071523 75 164 0.0 0.0 0.00 0.06 0.00 95 1013.2
20260901070022 75 164 0.0 0.0 0.00 0.06 0.00 95 1013.2
20260901064525 75 164 0.0 0.0 0.00 0.06 0.00 95 1013.2
20260901063030 76 164 0.0 0.0 0.00 0.06 0.00 94 1013.2
20260901061520 76 164 0.0 0.0 0.00 0.06 0.00 94 1013.0
20260901060117 76 164 0.0 0.0 0.00 0.06 0.00 94 1013.0
20260901054516 76 164 0.0 0.0 0.00 0.06 0.00 94 1013.1
20260901053021 76 164 0.0 0.0 0.00 0.06 0.00 94 1013.1
20260901051511 76 164 0.0 0.0 0.00 0.06 0.00 94 1013.1
20260901050010 77 164 0.0 0.0 0.00 0.06 0.06 94 1013.3
20260901044510 77 164 0.0 1.0 0.00 0.06 0.06 94 1013.2
20260901043009 77 164 0.0 0.0 0.00 0.06 0.06 94 1013.4
20260901041508 77 164 0.0 0.0 0.00 0.06 0.06 93 1013.4
20260901040008 78 164 0.0 0.0 0.00 0.06 0.06 93 1013.4
20260901034507 78 164 0.0 0.0 0.00 0.06 0.06 92 1013.3
20260901033011 78 164 0.0 0.0 0.00 0.06 0.06 91 1013.4
20260901031506 79 164 0.0 0.0 0.00 0.06 0.06 91 1013.5
20260901030005 79 164 0.0 1.0 0.00 0.06 0.06 90 1013.4
20260901024506 79 165 0.0 0.0 0.00 0.06 0.06 90 1013.4
20260901023005 80 164 0.0 0.0 0.00 0.06 0.06 90 1013.6
20260901021506 80 164 0.0 1.0 0.00 0.06 0.06 89 1013.7
20260901020004 80 165 0.0 2.0 0.00 0.06 0.06 89 1013.3
20260901014505 79 130 0.0 2.0 0.00 0.06 0.06 90 1013.3
20260901013004 79 194 0.0 1.0 0.00 0.06 0.06 90 1013.1
20260901011503 80 194 0.0 0.0 0.00 0.06 0.06 88 1013.2
20260901010002 80 194 0.0 0.0 0.00 0.06 0.06 88 1013.1
20260901004502 81 194 0.0 0.0 0.00 0.06 0.06 87 1012.9
20260901003005 81 194 0.0 0.0 0.00 0.06 0.06 87 1013.2
20260901001501 82 194 0.0 0.0 0.01 0.06 0.06 86 1013.2
20260901000114 82 194 0.0 6.0 0.01 0.06 0.06 85 1012.7
20260831234605 82 146 0.0 2.0 0.01 0.06 0.06 88 1012.5
20260831233059 81 136 0.0 2.0 0.01 0.06 0.06 89 1012.1
20260831231558 82 30 0.0 0.0 0.00 0.05 0.05 88 1013.4
20260831230058 82 30 0.0 0.0 0.01 0.06 0.05 85 1013.1
20260831224557 82 30 0.0 0.0 0.01 0.06 0.05 87 1012.6
20260831223059 83 30 0.0 2.0 0.01 0.06 0.05 87 1012.6
20260831221555 85 31 0.0 0.0 0.01 0.06 0.05 80 1012.6
20260831220052 85 31 1.0 3.0 0.00 0.06 0.04 75 1012.6
20260831214554 86 126 0.0 2.0 0.00 0.06 0.04 77 1012.2
20260831213058 86 121 0.0 2.0 0.00 0.06 0.04 78 1012.3
20260831211552 88 131 0.0 4.0 0.00 0.06 0.04 75 1012.3
20260831210051 89 82 0.0 2.0 0.00 0.06 0.04 72 1012.4
20260831204549 89 81 1.0 5.0 0.00 0.06 0.04 69 1012.7
20260831203047 89 287 0.0 3.0 0.00 0.06 0.04 73 1012.8
20260831201547 89 286 1.0 5.0 0.00 0.06 0.04 71 1013.0
20260831200047 88 338 2.0 3.0 0.00 0.06 0.04 69 1013.0
20260831194615 88 40 0.0 3.0 0.00 0.06 0.04 71 1012.8
20260831193045 89 331 0.0 3.0 0.00 0.06 0.04 67 1012.7
20260831191544 89 32 1.0 4.0 0.00 0.06 0.04 69 1013.1
20260831190054 89 318 1.0 4.0 0.00 0.06 0.04 68 1013.1
20260831184539 88 321 2.0 8.0 0.00 0.06 0.04 71 1013.0
20260831183035 87 35 2.0 8.0 0.00 0.06 0.04 70 1013.0
20260831181543 86 159 2.0 9.0 0.00 0.06 0.04 71 1013.1
20260831180031 85 130 2.0 7.0 0.00 0.06 0.04 72 1013.1
20260831174529 85 88 0.0 10.0 0.00 0.06 0.04 75 1013.6
20260831173024 83 159 1.0 9.0 0.00 0.06 0.04 75 1013.7
20260831171521 82 186 4.0 10.0 0.00 0.06 0.04 76 1013.7
20260831170017 80 150 3.0 10.0 0.00 0.06 0.04 78 1014.0
20260831164514 79 117 1.0 11.0 0.00 0.06 0.04 80 1014.4
20260831163011 78 163 3.0 9.0 0.00 0.06 0.04 82 1014.4
20260831161506 76 173 2.0 6.0 0.00 0.06 0.04 84 1014.4
20260831160003 75 142 2.0 8.0 0.00 0.06 0.04 86 1014.4
20260831154501 74 119 3.0 10.0 0.00 0.06 0.04 88 1014.5
20260831153101 73 150 2.0 8.0 0.00 0.06 0.04 88 1014.6
20260831151559 74 161 1.0 7.0 0.00 0.06 0.04 86 1014.8
20260831150059 74 128 0.0 6.0 0.00 0.06 0.04 87 1015.0
20260831144558 73 124 2.0 9.0 0.00 0.06 0.04 87 1014.7
20260831143112 72 133 1.0 7.0 0.00 0.06 0.04 90 1014.9
20260831141612 71 174 2.0 5.0 0.01 0.06 0.04 92 1014.7
20260831140055 70 138 0.0 4.0 0.01 0.08 0.04 94 1014.7
20260831134557 70 136 1.0 3.0 0.02 0.08 0.04 94 1014.9